Weather in Handan

China     36°36′27″N   114°28′36″E
temp.,
°C
wind,
m/s
gust,
m/s
humid.,
%
clouds,
%
prec.,
mm/h
press.,
hPa
HPBL,
m
8 may, sat
sat823:00+19ssw35180 0.0 100566
02:00+19sw410160 0.0 1003157
05:00+20wsw411170 0.0 1001213
08:00+28w814135 0.0 1001569
11:00+35wnw81095 0.0 10013576
14:00+37wnw486100 0.0 9995198
17:00+32ene88115 0.0 10011687
20:00+23ese39193 0.0 1004200
9 may, sun
sun923:00+19s01225 0.0 100657
02:00+18nne22225 0.0 100724
05:00+16ene22265 0.0 100729
08:00+20ese222759 0.0 1008515
11:00+26ese232668 0.0 10061088
14:00+32s3419100 0.0 10011675
17:00+35s681529 0.0 9971566
20:00+30s91727100 0.0 996689
10 may, mon
mon1023:00+26sw3640100 0.0 998122
02:00+21n91430100 0.0 1001505
05:00+18n91628100 0.0 1004672
08:00+19n101534100 0.0 1007861
11:00+23nne101243100 0.0 10081174
14:00+25nne101145100 0.0 10081493
17:00+24nne7945100 0.0 10081334
20:00+21ne594896 0.0 1009759
11 may, tue
tue1123:00+18nne3759100 0.0 1012238
02:00+16n4864100 0.0 1012334
05:00+14nne497396 0.0 1012329
08:00+18nne5756100 0.0 1013624
11:00+23nne4534100 0.0 10111044
14:00+27ne3324100 0.0 10081331
17:00+28e2121100 0.0 10061419
20:00+23se2230100 0.0 100621
12 may, wed
wed1223:00+22ssw3636100 0.0 1006106
02:00+20s3740100 0.0 1005106
05:00+19s2248100 0.0 100523
08:00+24n323371 0.0 1008512
11:00+29n4326100 0.0 10071191
14:00+33nne2324100 0.0 10041992
17:00+34se44277 0.0 10022735
20:00+29s5104291 0.1 1004660